Location: Theodore Roosevelt National Park
(46.9990°N, 103.4631°W)
Time: 18:13:51
(UTC-06:00)

Iridium 37 - Visible Passes

Search period start: 16 October 2017 00:00
Search period end: 26 October 2017 00:00
Orbit: 776 x 779 km, 86.4° (Epoch: 16 October)

Date Brightness Start Highest point End Pass type
(mag) Time Alt. Az. Time Alt. Az. Time Alt. Az.
16 Oct 8.0 03:21:42 10° NNE 03:25:14 18° ENE 03:28:43 10° ESE visible
16 Oct 5.4 05:01:17 10° N 05:06:28 66° W 05:11:37 10° S visible
17 Oct 8.5 02:50:39 10° ENE 02:51:14 10° ENE 02:51:48 10° ENE visible
17 Oct 5.6 04:27:43 10° N 04:32:57 72° E 04:34:14 51° SSE visible
17 Oct 7.0 06:09:56 10° NW 06:13:02 16° WNW 06:14:31 14° W visible
18 Oct 6.7 03:54:22 10° N 03:58:50 40° ENE 03:58:50 40° ENE visible
18 Oct 6.5 05:35:29 10° NNW 05:39:11 27° WNW 05:39:11 27° WNW visible
18 Oct 8.4 18:37:39 10° WSW 18:40:40 15° WNW 18:43:42 10° NNW visible
19 Oct 7.7 03:21:18 10° NNE 03:24:05 22° NE 03:24:05 22° NE visible
19 Oct 6.5 05:01:31 10° NNW 05:04:28 31° NW 05:04:28 31° NW visible
20 Oct 8.4 02:48:48 10° NE 02:49:37 12° NE 02:49:37 12° NE visible
20 Oct 7.0 04:27:49 10° N 04:30:02 26° N 04:30:02 26° N visible
21 Oct 7.7 03:54:21 10° N 03:55:47 19° N 03:55:47 19° N visible
21 Oct 7.7 05:36:03 10° NNW 05:36:12 11° NW 05:36:12 11° NW visible
21 Oct 8.7 18:39:45 10° W 18:41:04 11° WNW 18:42:23 10° NW visible
22 Oct 8.2 03:21:05 10° NNE 03:21:40 13° NNE 03:21:40 13° NNE visible
22 Oct 7.8 05:01:51 10° NNW 05:02:05 11° NNW 05:02:05 11° NNW visible
23 Oct 8.0 04:28:00 10° N 04:28:03 10° N 04:28:03 10° N visible
